Weather History for Hail, Saudi Arabia

Change the Weather History Date:

Wednesday, July 31, 2013

  Actual Average Record
Temperature  
Mean Temperature 84 °F -  
Max Temperature 98 °F 103 °F 109 °F (2000)
Min Temperature 69 °F 75 °F 35 °F (1997)
Cooling Degree Days 18    
Growing Degree Days 34 (Base 50)    
Moisture  
Dew Point 36 °F    
Average Humidity 15    
Maximum Humidity 25    
Minimum Humidity 6    
Precipitation  
Precipitation 0.00 in - - ()
Sea Level Pressure  
Sea Level Pressure 29.77 in    
Wind  
Wind Speed 6 mph ()    
Max Wind Speed 21 mph    
Max Gust Speed -    
Visibility 6.0 miles    
Events      
Averages and records for this station are not official NWS values.
T = Trace of Precipitation, MM = Missing Value Source: Averaged Metar Reports

Daily Weather History Graph

Daily Weather History Graph

Search for Another Location

Airport:

Trip Planner

Search our weather history database for the weather conditions in past years. The results will help you decide how hot, cold, wet, or windy it might be!

Date:

Astronomy

Jul. 31, 2013 Rise Set
Actual Time 5:36 AM AST 7:02 PM AST
Civil Twilight 5:10 AM AST 7:27 PM AST
Nautical Twilight 4:40 AM AST 7:57 PM AST
Astronomical Twilight 4:09 AM AST 8:29 PM AST
Moon 12:15 AM AST (7/31) 1:58 PM AST (7/31)
Length of Visible Light 14h 16m
Length of Day
13h 26m
Waning Crescent, 34% of the Moon is Illuminated
Jul 31
Waning Crescent
Aug 7
New
Aug 14
First Quarter
Aug 21
Full
Aug 28
Last Quarter

Hourly Weather History & Observations

Time (AST) Temp. Dew Point Humidity Pressure Visibility Wind Dir Wind Speed Gust Speed Precip Events Conditions
12:00 AM 85 °F 36 °F 9%  in 6 mi NNW 6.9 mph - -  
12:00 AM 84.2 °F 35.6 °F 18% 29.80 in - NNW 6.9 mph - N/A   Clear
1:00 AM 82.4 °F 37.4 °F 20% 29.77 in - North 6.9 mph - N/A   Clear
2:00 AM 80.6 °F 37.4 °F 21% 29.77 in - NNE 4.6 mph - N/A   Clear
3:00 AM 81 °F 37 °F 12%  in 6 mi WSW 2.3 mph - -  
3:00 AM 80.6 °F 37.4 °F 21% 29.77 in - WSW 2.3 mph - N/A   Clear
4:00 AM 73.4 °F 35.6 °F 25% 29.77 in - SSE 2.3 mph - N/A   Clear
5:00 AM 71.6 °F 33.8 °F 25% 29.77 in - SSE 4.6 mph - N/A   Clear
6:00 AM 72 °F 34 °F 15%  in 6 mi South 4.6 mph - -  
6:00 AM 71.6 °F 33.8 °F 25% 29.80 in - South 4.6 mph - N/A   Clear
7:00 AM 75.2 °F 35.6 °F 24% 29.80 in - South 4.6 mph - N/A   Clear
8:00 AM 80.6 °F 35.6 °F 20% 29.83 in - South 4.6 mph - N/A   Clear
9:00 AM 90 °F 36 °F 7%  in 6 mi West 2.3 mph - -  
9:00 AM 89.6 °F 35.6 °F 15% 29.80 in - West 2.3 mph - N/A   Clear
10:00 AM 93.2 °F 35.6 °F 13% 29.80 in - North 4.6 mph - N/A   Clear
11:00 AM 95.0 °F 35.6 °F 12% 29.80 in - SSW 2.3 mph - N/A   Clear
12:00 PM 96 °F 36 °F 6%  in 6 mi SSE 11.5 mph - -  
12:00 PM 95.0 °F 35.6 °F 12% 29.77 in - SSE 11.5 mph - N/A   Clear
1:00 PM 96.8 °F 35.6 °F 12% 29.77 in - West 2.3 mph - N/A   Clear
2:00 PM 98.6 °F 37.4 °F 12% 29.74 in - West 18.4 mph - N/A   Clear
3:00 PM 98 °F 37 °F 6%  in 6 mi West 11.5 mph - -  
3:00 PM 98.6 °F 37.4 °F 12% 29.74 in - West 11.5 mph - N/A   Clear
4:00 PM 98.6 °F 35.6 °F 11% 29.74 in - East 2.3 mph - N/A   Clear
5:00 PM 98.6 °F 33.8 °F 10% 29.74 in - WNW 2.3 mph - N/A   Clear
6:00 PM 95 °F 37 °F 7%  in 6 mi WNW 20.7 mph - -  
6:00 PM 95.0 °F 37.4 °F 13% 29.74 in - WNW 20.7 mph - N/A   Clear
7:00 PM 95.0 °F 37.4 °F 13% 29.74 in - West 13.8 mph - N/A   Clear
8:00 PM 91.4 °F 37.4 °F 15% 29.77 in - WNW 11.5 mph - N/A   Clear
9:00 PM 91 °F 37 °F 8%  in 6 mi WNW 13.8 mph - -  
9:00 PM 91.4 °F 37.4 °F 15% 29.77 in - WNW 13.8 mph - N/A   Clear
10:00 PM 89.6 °F 35.6 °F 15% 29.80 in - North 9.2 mph - N/A   Clear
11:00 PM 86.0 °F 37.4 °F 18% 29.80 in - NNE 6.9 mph - N/A   Clear